Tracking 29892 objects as of 21-Nov-2024
HD Live streaming from Space Station
objects crossing your sky now

STARLINK-1695

Track STARLINK-1695 now!
10-day predictions
STARLINK-1695 is classified as:


NORAD ID: 46329
Int'l Code: 2020-062E
Perigee: 553.2 km
Apogee: 555.3 km
Inclination: 53.1 °
Period: 95.6 minutes
Semi major axis: 6925 km
RCS: Unknown
Launch date: September 3, 2020
Source: United States (US)
Launch site: AIR FORCE EASTERN TEST RANGE (AFETR)
Your satellite tracking list
Your tracking list is empty




NASA's NSSDC Master Catalog

Two Line Element Set (TLE):
1 46329U 20062E   24325.03982488  .00016877  00000-0  11482-2 0  9999
2 46329  53.0542 327.4025 0001581  83.5953 276.5216 15.06431447233042
Source of the keplerian elements: AFSPC